Regional Weather Roundup
Issued by NWS Albany, NY

Home | Current Version | Previous Version | Text Only | Print | Product List | Glossary On
Versions: 1 2 3 4 5 6 7 8 9 10 11 12 13 14 15 16 17 18 19 20 21 22 23 24 25 26 27
000
ASUS41 KALY 270410
RWRALY

NEW YORK STATE HOURLY WEATHER ROUNDUP
NATIONAL WEATHER SERVICE ALBANY NY
1200 AM EDT SAT MAY 27 2017

NOTE: "FAIR" INDICATES FEW OR NO CLOUDS BELOW 12,000 FEET WITH NO
SIGNIFICANT WEATHER AND/OR NO OBSTRUCTIONS TO VISIBILITY.

NYZ032-033-038>043-046>054-057>066-NYZ062>081-082-084-270500-
EAST


CITY           SKY/WX    TMP DP  RH WIND       PRES   REMARKS
ALBANY         DRIZZLE   55  51  86 NE5       29.81R
GLENS FALLS    NOT AVBL
POUGHKEEPSIE   CLOUDY    60  54  80 CALM      29.79R
NEWBURGH       MOCLDY    59  54  82 W9        29.81S
MONTGOMERY     CLEAR     61  52  72 NW7       29.81R
WHITE PLAINS   PTCLDY    63  51  65 NW10      29.78S
ISLIP          PTCLDY    60  57  89 N3        29.78R
NEW YORK CITY  PTCLDY    65  53  65 NW12      29.80R
CENTRAL PARK   CLEAR     65  52  62 VRB3      29.83R
$$

NYZ005>009-017-018-044>046-055-056-270500-
CENTRAL


CITY           SKY/WX    TMP DP  RH WIND       PRES   REMARKS
FULTON         LGT RAIN  56  54  93 CALM      29.85S FOG
SYRACUSE       DRIZZLE   56  56 100 NW3       29.85S FOG
ROME           CLOUDY    55  54  96 NW6       29.86R
ELMIRA         CLOUDY    60  52  74 SW3       29.87R
BINGHAMTON     CLOUDY    54  53  97 VRB5      29.86R
MONTICELLO     PTCLDY    55  52  88 W6        29.85R
$$

NYZ026>034-041>043-087-270500-
NORTH


CITY           SKY/WX    TMP DP  RH WIND       PRES   REMARKS
WATERTOWN      CLOUDY    55  53  93 CALM      29.85S
FORT DRUM      NOT AVBL
OGDENSBURG     FAIR      54  52  94 CALM      29.86R
MASSENA        FOG       50  49  96 CALM      29.86S VSB 1/2
SARANAC LAKE   CLOUDY    48  48 100 CALM      29.83R
PLATTSBURGH    CLOUDY    51  47  86 NW6       29.82R
$$

NYZ001>004-010>016-019>021-085-270500-
WEST


CITY           SKY/WX    TMP DP  RH WIND       PRES   REMARKS
NIAGARA FALLS  CLOUDY    59  56  89 SW3       29.87S
BUFFALO        CLOUDY    54  52  93 SW8       29.88S FOG
DUNKIRK        CLOUDY    56  53  90 SW7       29.90S
JAMESTOWN      CLOUDY    54  48  82 SW3       29.91F
WELLSVILLE     CLOUDY    54  50  86 W5        29.92S
ROCHESTER      CLOUDY    58  55  90 W8        29.87R
PENN YAN       CLOUDY    58  51  78 SW7       29.87R
$$

             KEY
       WCI = WIND CHILL INDEX
       VSB = VISIBILITY
       HX  = HEAT INDEX
$$




USA.gov is the U.S. government's official web portal to all federal, state and local government web resources and services.